Wind_Speed
26 25 25 24 22 20 18 16 13 14 14 13 13 12 12 12 12 13 12 12 12 12 11 11 12 12 11 11 11 11 11 10 10 10 10 10 10 10 10 10 12 16 19 21 21 21 20 17 14 11 9 8 7 7 6 6 6 7 8 10 11 11
26 25 25 24 22 21 18 16 14 15 15 14 13 13 13 12 12 12 11 11 11 11 10 10 11 11 10 10 11 10 10 9 9 9 8 9 9 9 9 9 11 13 17 21 22 22 21 18 16 13 10 8 7 7 6 6 6 6 7 8 10 10
26 26 26 24 23 21 18 17 16 16 16 15 14 13 13 13 12 11 11 11 11 11 10 9 10 10 10 9 10 9 9 8 8 7 7 7 7 8 8 9 10 11 13 19 23 23 22 20 18 15 11 9 8 7 6 6 5 5 6 7 8 9
25 24 25 24 23 20 18 18 17 17 16 16 15 13 12 12 13 12 11 11 11 11 10 9 10 9 9 8 8 8 7 6 6 6 6 5 5 6 7 8 9 10 12 16 21 23 22 21 20 16 13 10 8 7 6 5 5 5 5 6 7 7
23 23 23 23 22 20 19 19 18 17 17 16 15 13 12 12 13 12 12 11 11 10 9 9 9 9 8 7 6 6 6 5 5 5 6 6 6 6 6 8 9 11 12 15 18 21 22 22 20 17 13 11 9 7 6 5 5 4 5 4 5 6
22 22 21 21 20 19 19 19 18 18 17 16 15 13 12 12 13 13 12 11 10 9 8 8 8 9 8 8 7 6 6 5 5 6 7 7 7 6 7 8 9 11 13 15 17 19 21 22 21 17 14 12 9 7 5 4 4 3 3 3 3 4
21 21 20 19 19 19 19 19 19 18 17 16 14 13 12 13 14 13 12 11 10 8 8 8 8 8 9 9 9 8 8 7 7 7 7 8 7 8 8 9 10 11 12 15 17 17 19 20 20 17 14 12 9 6 4 3 2 2 2 2 2 2
20 20 19 19 19 19 20 19 19 18 17 15 13 13 13 14 15 14 12 10 9 8 8 7 7 7 8 9 8 9 9 8 8 7 6 7 7 8 9 9 9 10 12 14 15 15 16 17 18 17 14 12 9 7 4 3 3 3 2 1 1 1
20 20 18 19 19 19 20 20 19 18 17 15 13 13 13 14 15 13 11 10 8 7 7 7 7 7 7 7 6 7 8 7 7 7 8 7 7 8 8 9 9 10 11 12 13 13 13 14 15 15 14 13 11 9 7 5 4 4 3 1 1 1
19 19 19 19 19 19 20 20 19 18 16 14 13 13 13 15 14 12 11 10 8 7 8 8 7 7 6 6 5 5 6 6 7 8 8 8 8 7 7 8 8 10 11 11 11 11 12 13 14 13 12 12 11 9 7 6 5 5 4 2 1 1
20 19 19 20 19 19 19 19 19 18 16 15 14 13 13 15 14 12 11 10 9 8 9 9 8 7 6 5 5 4 5 6 7 8 8 9 8 7 6 7 8 9 10 10 10 10 11 11 11 10 9 9 9 8 8 7 6 6 5 2 1 1
21 19 19 20 20 19 19 19 19 18 16 15 14 13 14 15 14 12 11 10 9 8 9 9 8 8 6 5 4 4 5 6 7 8 8 8 8 6 5 6 7 8 8 10 9 10 11 10 9 7 6 7 7 7 8 8 8 7 5 3 3 2
22 20 19 21 20 19 19 19 19 18 17 16 15 14 14 14 13 12 10 10 9 8 8 8 8 8 6 5 4 4 5 6 7 8 8 8 7 5 5 5 6 6 8 9 8 9 10 9 8 6 5 5 7 8 8 9 9 8 5 4 4 4
22 22 21 21 21 19 19 19 19 18 17 16 15 14 14 13 13 11 10 10 9 9 8 8 8 8 7 5 4 4 4 5 6 7 8 8 7 5 5 6 6 6 7 8 7 8 9 7 7 6 4 3 5 8 9 10 10 8 6 5 6 6
23 23 23 23 21 20 20 20 19 18 17 17 15 14 14 13 12 11 10 9 9 9 9 8 8 8 7 6 5 5 5 5 5 6 7 8 7 6 5 6 6 7 7 7 7 7 8 6 5 5 4 3 4 7 8 9 10 9 7 7 7 7
23 24 24 23 21 20 20 19 18 17 16 16 15 14 14 13 12 11 10 9 9 10 10 9 8 7 7 7 7 6 6 5 4 5 6 7 7 6 6 6 7 7 6 6 7 7 7 6 5 5 4 3 5 7 9 10 10 9 8 8 8 8
23 23 23 22 21 20 20 18 18 17 16 15 14 13 13 12 12 11 10 9 10 10 9 9 7 7 8 8 8 8 7 6 5 5 5 6 7 7 6 5 6 7 6 5 7 7 7 7 6 5 5 4 6 8 9 10 9 9 9 9 9 10
23 23 23 23 21 20 19 18 17 17 16 15 14 13 12 11 10 10 10 9 10 10 9 8 8 8 8 7 8 8 7 6 5 5 5 5 6 7 7 6 5 7 8 6 6 7 8 8 7 7 7 6 7 9 9 9 9 10 10 10 11 11
24 24 23 22 20 20 20 19 18 18 17 16 15 13 11 10 9 10 10 9 9 9 9 8 8 8 8 7 7 8 7 6 5 5 5 6 6 7 7 7 6 7 9 8 6 7 8 9 9 9 9 8 8 9 9 9 10 11 11 11 12 11
25 25 24 23 21 21 21 21 20 19 18 17 15 13 11 10 9 9 9 8 8 8 8 8 7 8 7 7 8 8 8 7 7 6 6 6 7 8 7 8 8 7 8 10 8 8 9 9 9 11 10 9 9 9 8 10 11 11 11 12 11 11
26 25 24 23 22 22 22 22 22 21 19 16 14 13 11 10 9 8 7 6 7 7 7 7 6 7 7 8 8 8 8 8 7 7 6 6 7 8 8 9 10 8 8 9 10 10 10 9 9 11 11 10 10 8 8 10 11 10 10 10 10 10
25 25 23 22 22 22 22 22 21 19 17 15 14 12 10 9 9 8 7 7 6 6 6 6 6 6 7 7 7 7 6 6 7 7 7 7 8 8 10 10 10 9 9 9 10 11 12 10 9 9 10 11 11 8 8 9 10 9 9 9 10 9
24 24 23 22 22 21 21 20 17 15 14 14 13 11 10 9 9 8 8 8 7 6 6 6 5 5 5 6 6 5 5 6 7 7 7 7 8 9 10 11 10 9 9 10 11 11 12 11 10 9 10 11 10 10 8 8 9 8 8 8 8 8
23 23 23 22 21 20 19 18 15 14 13 13 13 12 11 11 10 9 9 8 8 7 7 6 5 5 5 6 7 6 5 6 6 7 7 7 7 8 10 11 11 9 9 10 11 11 12 11 10 10 11 9 9 10 8 8 9 8 8 7 7 7
24 23 23 23 21 20 19 18 16 16 15 15 15 14 13 12 11 9 9 9 8 8 8 7 6 6 6 7 7 6 6 6 6 7 7 7 8 8 9 10 11 10 10 10 9 10 11 12 11 11 10 7 7 8 8 11 10 8 7 6 5 5
25 24 24 23 21 20 19 19 18 18 18 18 17 15 14 12 10 9 8 9 9 9 8 7 7 7 7 7 7 7 7 7 6 6 7 9 9 8 9 10 10 10 10 11 10 10 11 12 12 12 11 8 6 5 8 12 12 8 7 5 4 4
25 24 24 23 22 20 20 20 19 18 17 17 16 15 13 10 8 8 9 10 10 9 8 7 7 7 7 6 7 7 8 8 7 7 8 8 8 9 10 10 10 10 10 11 11 11 11 12 12 13 13 11 9 8 7 9 12 11 10 8 6 6
25 25 24 23 23 21 21 21 19 18 17 16 14 13 11 10 9 9 10 10 9 9 9 9 8 7 6 6 6 7 8 8 8 8 8 7 8 9 9 10 11 11 11 11 11 10 10 11 12 12 14 12 11 10 9 9 11 12 12 14 12 11
26 26 26 24 23 21 22 21 20 19 17 15 13 11 11 11 10 11 11 10 9 8 8 7 6 5 5 7 8 8 8 9 9 8 7 7 7 8 8 9 10 11 12 12 12 11 11 11 11 11 13 13 12 10 9 9 10 10 12 15 16 17
27 27 27 25 23 22 23 23 22 20 17 15 14 12 11 11 11 10 11 10 9 7 6 5 4 3 4 6 9 9 8 9 9 8 7 7 6 6 7 7 8 9 11 12 13 12 12 12 11 10 12 13 13 12 10 11 12 11 11 13 17 20
28 28 28 26 24 25 25 24 22 19 16 15 14 13 13 13 12 11 10 9 7 6 5 3 2 1 2 4 7 8 9 8 8 8 8 8 8 6 6 7 7 8 10 12 12 12 13 13 12 12 12 13 13 12 10 11 12 12 12 13 18 22
29 29 29 27 27 27 26 24 21 18 15 14 14 13 14 14 13 11 9 8 7 6 5 4 3 2 1 2 3 5 8 8 7 7 6 8 10 8 7 7 7 7 8 9 10 11 11 12 12 12 12 13 12 11 10 9 10 11 11 12 16 22
30 30 29 28 29 27 24 22 21 18 16 15 13 12 13 14 12 10 9 8 7 5 4 4 4 3 3 2 1 2 5 7 7 5 3 6 10 9 8 8 8 8 8 8 8 9 9 11 11 10 10 12 12 11 10 9 10 11 11 13 18 22
32 31 30 30 29 25 22 21 20 18 17 15 13 12 13 13 11 10 9 8 6 4 3 4 5 5 4 4 2 2 4 6 6 4 2 5 9 10 9 8 8 8 8 8 8 9 10 10 11 10 11 12 12 11 10 9 10 11 11 15 20 22
33 33 32 31 28 24 21 20 19 18 16 14 12 12 13 12 11 10 9 8 5 3 3 3 3 5 5 5 5 4 4 6 6 6 5 6 9 10 10 9 8 8 8 10 10 10 10 10 10 11 12 13 12 12 11 9 10 11 11 14 18 19
34 34 33 30 27 24 22 21 20 18 16 15 13 13 13 12 12 11 9 7 5 4 4 2 1 3 5 6 7 6 6 7 7 7 7 7 9 11 12 10 8 8 8 10 10 10 10 10 10 11 12 13 13 13 12 10 11 12 12 15 16 16
34 33 32 31 29 27 25 21 20 19 17 15 12 11 12 13 13 12 9 7 5 5 4 2 2 3 4 6 7 8 8 8 8 9 8 7 7 10 12 11 10 9 9 9 11 11 11 11 11 12 13 14 14 14 13 13 14 13 14 17 15 13
Wind_Direction
171 172 172 172 171 171 170 173 171 169 168 168 166 163 160 154 156 156 156 155 151 148 143 140 139 139 136 131 128 124 124 124 122 121 120 123 125 129 135 146 153 159 168 173 173 170 170 178 182 183 182 167 148 137 119 105 85 69 54 45 45 44
171 172 172 172 172 172 172 174 171 170 169 169 167 165 164 162 162 160 158 158 155 151 144 139 138 141 140 136 133 130 131 130 126 125 127 130 133 137 141 150 153 155 163 172 177 174 175 181 183 185 186 172 160 149 132 119 95 69 53 48 48 47
173 173 174 173 173 174 173 174 173 172 172 171 171 172 171 166 165 166 165 165 162 156 148 142 141 143 144 143 140 138 137 134 134 132 133 137 140 143 145 153 156 158 158 167 176 177 179 184 184 188 187 176 170 157 140 125 102 73 56 56 55 51
176 175 175 175 174 175 176 176 176 175 176 176 178 180 175 168 169 172 170 170 167 162 157 151 147 146 145 146 145 144 140 138 144 137 130 135 141 146 151 157 157 161 158 162 174 179 182 184 184 188 187 181 179 166 150 132 108 86 71 64 55 48
178 177 177 178 176 176 180 179 178 178 179 180 184 185 176 172 174 172 172 174 173 163 156 153 147 143 137 140 148 144 142 146 151 139 133 139 146 149 154 159 158 159 158 160 170 177 183 184 183 186 187 185 183 173 162 148 124 105 94 77 48 36
179 179 179 181 178 181 184 183 182 182 183 184 189 187 179 177 176 174 174 176 173 159 148 146 142 144 141 142 149 147 146 150 147 141 141 144 146 149 151 155 157 157 158 160 165 173 181 183 183 185 187 187 182 173 164 153 138 123 114 95 53 27
180 180 182 183 183 186 187 186 186 187 189 190 192 188 184 181 179 178 177 176 170 158 150 147 147 156 155 149 150 147 145 145 142 142 146 148 149 149 150 155 158 159 159 160 162 171 179 182 182 184 185 185 183 174 167 162 157 159 143 101 64 30
183 184 187 188 190 192 191 190 190 192 193 195 194 188 187 186 183 182 178 177 171 162 157 155 159 165 161 153 149 146 145 144 143 145 149 153 158 157 158 161 164 167 163 162 164 169 177 182 185 188 188 189 195 197 195 193 194 200 186 113 80 29
187 189 193 194 195 196 196 195 194 196 196 196 195 189 191 190 187 184 179 179 176 171 166 164 167 168 167 162 156 151 150 151 152 157 159 160 169 173 173 173 175 176 171 167 168 168 171 178 184 190 193 200 209 213 211 208 214 218 213 189 142 15
189 191 197 199 199 200 200 199 197 199 199 197 194 191 194 192 190 187 181 183 184 180 175 173 173 174 178 178 174 165 160 162 164 166 168 169 175 180 183 182 181 183 183 178 176 174 171 173 177 183 191 200 207 211 212 211 219 221 211 192 146 27
191 193 199 202 203 204 204 203 200 200 199 197 195 195 196 194 193 189 186 188 190 188 184 183 183 184 188 190 191 181 175 176 171 169 171 174 175 175 177 183 183 185 191 188 185 182 180 180 181 185 192 197 201 210 217 212 213 213 203 184 138 77
193 196 200 202 204 206 206 205 202 200 197 197 198 197 198 197 195 191 191 193 195 197 198 197 194 196 198 200 201 191 185 184 176 173 173 173 175 174 172 182 185 185 191 193 190 186 184 186 187 191 199 204 207 215 223 213 204 204 199 180 157 155
194 198 200 201 203 205 206 205 201 199 197 198 199 199 199 197 194 192 194 197 201 206 209 209 206 207 208 212 212 199 191 186 180 179 181 183 182 179 176 180 183 182 189 193 192 190 190 188 182 183 191 211 225 224 221 208 201 203 196 172 161 167
192 194 196 198 201 204 204 201 197 197 198 197 198 200 197 193 192 193 197 202 207 213 217 216 215 216 214 220 223 207 196 191 188 187 190 195 197 195 184 180 179 177 184 187 187 191 193 190 181 183 185 194 221 216 208 205 202 199 188 166 162 169
188 189 192 194 198 200 198 196 194 195 196 197 199 198 195 192 193 196 202 209 215 220 221 221 222 219 217 223 228 222 216 208 199 195 196 199 205 209 196 183 175 170 177 179 176 184 190 190 182 183 186 173 185 192 190 194 196 190 180 169 167 165
186 185 186 190 193 193 193 192 192 194 195 198 198 195 194 194 197 203 210 216 223 226 226 229 229 222 221 228 233 232 230 224 211 201 198 197 200 205 200 187 174 167 174 177 172 177 182 181 180 179 184 183 175 177 179 183 188 186 177 170 165 157
185 181 182 185 187 189 191 191 191 194 196 197 196 194 196 198 203 209 217 222 226 228 229 232 230 225 226 227 232 233 230 228 217 208 203 197 193 191 191 184 173 166 166 172 170 173 174 169 175 182 180 179 172 171 175 179 184 184 178 169 160 154
183 179 180 182 184 187 190 191 193 195 197 197 195 196 199 202 205 209 217 224 226 228 232 234 230 229 228 223 228 229 225 224 218 215 209 198 189 184 183 176 169 167 162 160 167 171 170 167 173 183 175 166 169 167 165 172 178 179 177 169 160 155
182 179 180 181 183 187 191 194 194 195 197 196 196 198 200 204 206 208 215 222 226 228 230 231 229 229 225 224 230 226 224 224 219 220 209 196 191 185 183 174 167 171 163 156 161 167 168 169 173 178 173 166 175 176 169 173 176 178 178 173 165 160
183 179 179 181 185 189 192 194 193 193 194 194 195 195 199 207 206 207 212 217 223 224 224 226 228 230 226 226 231 225 223 223 220 221 212 198 194 190 188 178 171 177 173 163 159 163 170 176 176 176 175 174 181 185 182 180 178 179 178 174 172 168
182 178 178 182 188 192 194 194 192 191 192 192 193 193 198 204 200 199 204 211 218 218 219 222 226 231 225 225 229 225 222 222 218 217 211 198 191 189 186 179 176 177 180 174 162 161 172 180 182 177 174 175 177 182 183 178 180 184 180 181 185 178
182 178 179 183 189 193 196 196 193 190 189 191 193 193 195 194 191 193 199 204 208 209 210 213 218 222 217 214 215 214 212 210 208 208 205 194 186 187 183 178 181 179 176 179 169 164 170 179 186 181 175 174 171 173 179 181 187 191 187 191 192 184
184 180 180 185 191 194 197 198 196 192 190 191 191 187 180 179 183 187 191 192 193 198 199 202 207 205 201 196 190 184 178 183 190 191 191 190 185 187 184 177 184 186 178 178 175 172 174 179 187 185 178 174 171 171 178 192 199 196 196 199 190 184
188 183 183 185 190 195 198 198 194 191 192 191 186 179 171 170 172 174 178 180 182 187 187 190 188 176 173 175 175 168 162 171 177 178 182 188 185 184 185 182 186 190 189 187 182 180 183 184 189 191 184 176 177 178 183 202 204 197 200 201 189 186
191 187 185 185 190 194 197 197 188 184 188 187 182 177 174 171 166 164 171 176 177 178 178 182 178 168 165 167 174 177 175 176 177 177 182 188 186 181 181 186 191 192 194 198 193 190 191 189 189 195 194 182 179 187 201 209 202 194 201 201 193 193
192 190 187 187 190 193 196 194 187 186 187 187 185 184 181 176 165 160 170 175 173 172 174 180 179 172 167 169 177 184 181 177 178 176 181 190 189 183 182 188 196 197 196 198 197 198 197 194 193 196 203 209 211 224 231 214 195 182 188 192 187 177
193 192 190 189 191 192 194 192 189 191 193 193 194 191 185 180 172 167 173 175 171 168 166 168 174 174 172 172 174 179 179 180 183 179 180 188 187 185 189 193 200 202 200 199 199 200 200 205 208 204 209 223 232 247 257 230 210 196 176 162 161 157
194 193 191 190 192 192 194 193 190 193 197 197 198 193 187 186 185 180 179 180 178 171 162 160 165 174 182 186 182 178 180 183 184 182 179 183 187 189 192 197 204 206 203 201 201 202 204 213 221 218 218 228 234 242 257 250 234 220 184 157 150 149
193 192 191 191 191 193 194 193 191 194 194 191 192 192 191 192 189 186 185 189 190 179 167 163 161 162 176 190 194 190 188 188 184 179 178 178 182 186 184 191 203 206 203 199 199 203 208 215 222 224 225 230 234 236 244 236 223 218 194 166 154 150
192 191 191 190 190 193 194 191 192 194 189 183 187 191 193 193 190 188 190 192 190 178 172 168 153 136 149 176 188 190 191 193 186 178 181 185 184 183 180 183 193 197 198 197 197 201 206 208 212 219 224 229 232 231 226 211 204 204 200 179 159 154
192 190 189 190 192 193 192 189 191 193 188 186 191 195 195 192 188 186 188 190 185 180 183 181 175 152 128 159 175 180 184 188 187 185 188 196 197 191 187 188 189 188 190 193 195 199 203 204 207 212 217 221 227 231 226 212 207 202 200 189 163 154
191 189 190 191 191 191 189 189 193 195 193 196 201 205 199 190 184 181 184 192 193 196 203 208 222 232 184 148 163 174 180 184 192 192 190 196 195 190 189 191 191 189 188 192 196 197 202 206 209 212 210 207 210 220 226 222 212 200 203 205 176 158
191 190 191 191 189 189 190 192 197 199 200 205 213 216 202 188 183 182 188 197 200 206 219 224 227 221 206 194 187 187 188 191 196 194 184 187 189 187 185 184 185 189 190 192 191 191 197 203 207 210 203 191 191 201 211 213 205 195 196 200 182 163
193 192 191 191 190 190 192 194 196 198 201 210 220 218 202 191 187 190 195 201 204 210 231 237 230 221 218 218 222 216 202 202 205 211 212 191 189 189 185 183 181 180 182 182 180 181 186 192 197 200 192 183 182 188 191 193 194 191 189 189 182 169
194 194 193 193 193 190 190 191 191 196 204 215 219 209 199 196 195 195 197 202 205 206 215 230 232 229 230 232 233 230 214 211 216 226 227 204 195 194 190 189 186 178 175 174 173 177 178 184 191 189 182 179 180 181 178 178 183 184 187 191 187 178
196 196 194 192 190 187 188 189 190 197 205 208 206 200 198 200 198 195 199 208 208 201 201 193 215 229 232 232 235 236 226 217 216 224 224 204 192 193 192 191 187 180 179 173 170 176 177 180 186 184 180 177 176 177 174 171 178 183 189 193 190 187
195 193 192 188 185 184 186 189 193 196 197 195 193 197 202 202 197 193 201 214 209 204 207 215 239 242 237 228 227 231 235 229 214 214 220 204 184 188 187 183 178 175 181 179 170 174 180 183 185 183 182 177 173 176 172 167 175 184 187 189 191 194
Height
1511 1513 1515 1517 1519 1521 1522 1524 1525 1526 1527 1528 1529 1530 1531 1532 1534 1534 1535 1536 1537 1538 1538 1539 1539 1540 1540 1541 1541 1542 1542 1542 1543 1543 1543 1543 1543 1544 1544 1545 1546 1547 1548 1549 1550 1551 1551 1551 1552 1552 1553 1554 1555 1556 1557 1557 1558 1558 1558 1559 1559 1559
1511 1513 1516 1518 1520 1521 1523 1524 1525 1526 1527 1529 1530 1531 1532 1533 1534 1535 1536 1537 1538 1539 1539 1540 1540 1540 1541 1542 1542 1542 1542 1543 1543 1543 1544 1544 1544 1544 1544 1545 1546 1547 1547 1548 1549 1550 1551 1551 1552 1552 1553 1554 1555 1556 1557 1558 1558 1558 1559 1559 1559 1559
1511 1513 1515 1518 1520 1521 1523 1524 1525 1526 1528 1529 1530 1531 1532 1534 1535 1536 1537 1538 1538 1539 1540 1540 1541 1541 1542 1542 1542 1542 1543 1543 1543 1543 1544 1544 1544 1544 1544 1544 1545 1546 1547 1548 1549 1550 1550 1551 1552 1552 1553 1554 1555 1556 1558 1558 1559 1559 1559 1559 1559 1560
1512 1514 1516 1518 1520 1521 1523 1524 1525 1526 1528 1529 1530 1531 1533 1534 1535 1536 1537 1538 1539 1539 1540 1541 1541 1542 1542 1543 1543 1543 1543 1543 1544 1544 1544 1544 1545 1545 1544 1545 1545 1546 1547 1548 1548 1549 1549 1551 1552 1552 1553 1555 1556 1557 1558 1559 1559 1560 1560 1560 1560 1560
1512 1514 1516 1518 1520 1522 1523 1524 1525 1526 1528 1529 1530 1531 1533 1535 1535 1537 1537 1538 1539 1540 1541 1541 1542 1542 1543 1543 1544 1544 1544 1545 1545 1544 1544 1545 1545 1545 1545 1545 1546 1546 1547 1548 1548 1549 1549 1551 1552 1553 1554 1555 1556 1557 1558 1559 1559 1560 1560 1560 1560 1560
1512 1515 1516 1518 1520 1522 1523 1524 1525 1526 1528 1529 1530 1532 1533 1535 1536 1537 1537 1538 1540 1540 1541 1542 1543 1543 1543 1544 1544 1545 1545 1546 1546 1545 1545 1545 1545 1545 1545 1546 1546 1547 1547 1548 1548 1549 1549 1551 1552 1553 1554 1556 1556 1557 1558 1559 1559 1560 1560 1560 1560 1561
1513 1515 1517 1519 1520 1522 1523 1524 1525 1527 1528 1529 1531 1532 1534 1535 1536 1537 1538 1539 1540 1541 1542 1542 1543 1543 1544 1544 1544 1545 1546 1546 1546 1546 1546 1545 1545 1546 1546 1547 1547 1548 1548 1548 1549 1549 1550 1551 1553 1553 1555 1556 1557 1557 1558 1559 1560 1560 1560 1560 1561 1561
1513 1515 1517 1518 1520 1521 1522 1524 1525 1526 1528 1530 1531 1533 1534 1535 1536 1537 1538 1539 1540 1541 1542 1542 1543 1543 1544 1544 1545 1545 1546 1546 1546 1546 1546 1546 1546 1546 1547 1547 1548 1548 1549 1549 1550 1550 1551 1552 1553 1554 1555 1556 1556 1557 1558 1559 1559 1560 1560 1560 1561 1561
1513 1515 1516 1518 1519 1520 1522 1523 1525 1526 1528 1530 1532 1533 1535 1536 1536 1537 1538 1539 1540 1541 1541 1542 1543 1543 1544 1544 1545 1545 1546 1546 1546 1547 1547 1547 1547 1547 1547 1548 1548 1549 1549 1550 1550 1551 1552 1553 1553 1554 1555 1556 1556 1557 1557 1558 1559 1560 1560 1561 1561 1561
1512 1514 1516 1517 1519 1520 1521 1523 1525 1526 1528 1530 1532 1533 1535 1536 1537 1537 1538 1539 1540 1540 1541 1542 1542 1543 1544 1544 1545 1545 1546 1547 1547 1547 1547 1547 1547 1547 1548 1548 1549 1549 1549 1550 1551 1552 1552 1553 1553 1554 1555 1555 1556 1556 1557 1558 1559 1560 1560 1561 1561 1562
1511 1513 1515 1517 1518 1520 1521 1523 1525 1526 1528 1530 1532 1533 1535 1536 1537 1538 1538 1539 1539 1540 1541 1541 1542 1543 1543 1544 1545 1546 1546 1547 1547 1547 1547 1547 1547 1548 1548 1548 1549 1549 1549 1550 1551 1552 1552 1553 1553 1554 1555 1555 1556 1556 1557 1558 1559 1560 1561 1561 1562 1562
1509 1512 1514 1516 1518 1520 1521 1523 1525 1526 1528 1529 1531 1533 1534 1535 1536 1537 1538 1539 1539 1540 1541 1541 1542 1543 1543 1544 1545 1545 1546 1547 1547 1547 1547 1547 1547 1548 1548 1549 1549 1549 1549 1550 1551 1552 1552 1552 1553 1554 1555 1555 1556 1556 1557 1558 1559 1560 1561 1561 1562 1562
1507 1510 1513 1515 1517 1519 1521 1523 1524 1526 1527 1528 1530 1532 1533 1534 1536 1537 1538 1538 1539 1540 1541 1542 1542 1542 1543 1544 1544 1545 1546 1547 1547 1547 1547 1547 1547 1548 1548 1549 1549 1549 1549 1550 1551 1551 1552 1553 1553 1554 1555 1555 1556 1557 1557 1558 1559 1560 1561 1561 1561 1562
1506 1508 1511 1514 1517 1519 1520 1522 1523 1525 1526 1528 1529 1531 1532 1534 1535 1536 1537 1538 1539 1540 1541 1542 1542 1542 1543 1544 1545 1545 1546 1547 1547 1547 1547 1547 1547 1548 1548 1549 1549 1549 1549 1550 1551 1551 1552 1553 1554 1554 1555 1555 1556 1556 1557 1558 1559 1560 1560 1561 1561 1562
1504 1507 1510 1513 1515 1518 1519 1521 1523 1524 1525 1527 1529 1530 1532 1533 1534 1535 1536 1537 1539 1540 1541 1542 1542 1542 1543 1544 1545 1545 1546 1546 1547 1547 1547 1547 1547 1547 1548 1548 1549 1549 1549 1550 1550 1551 1552 1553 1554 1554 1555 1555 1556 1556 1557 1558 1559 1560 1560 1561 1561 1562
1503 1506 1508 1511 1514 1516 1518 1520 1522 1524 1525 1527 1528 1530 1531 1532 1534 1535 1536 1537 1539 1540 1541 1541 1542 1542 1543 1544 1544 1545 1546 1546 1546 1546 1546 1546 1547 1547 1547 1548 1548 1549 1549 1550 1550 1551 1552 1553 1554 1554 1555 1555 1556 1556 1557 1558 1558 1559 1560 1561 1562 1562
1503 1505 1507 1510 1513 1516 1518 1520 1522 1523 1525 1526 1528 1529 1531 1532 1534 1535 1536 1537 1538 1540 1541 1541 1542 1542 1543 1543 1544 1544 1545 1545 1546 1546 1546 1546 1546 1546 1547 1547 1548 1548 1549 1549 1550 1551 1552 1553 1554 1554 1555 1555 1556 1556 1557 1558 1559 1559 1560 1561 1562 1563
1503 1505 1507 1510 1513 1516 1518 1520 1522 1523 1525 1526 1528 1529 1531 1532 1533 1535 1536 1537 1538 1539 1540 1541 1541 1542 1542 1543 1543 1544 1544 1545 1545 1545 1546 1546 1546 1546 1547 1547 1548 1548 1548 1549 1550 1551 1552 1553 1553 1554 1555 1555 1556 1556 1557 1558 1559 1560 1560 1561 1562 1563
1503 1504 1506 1510 1513 1516 1518 1520 1521 1523 1524 1526 1527 1529 1530 1532 1533 1535 1536 1537 1538 1539 1540 1540 1541 1542 1542 1542 1542 1543 1544 1544 1545 1545 1546 1546 1546 1546 1546 1547 1547 1548 1548 1549 1550 1551 1552 1553 1554 1554 1555 1555 1556 1556 1557 1558 1559 1560 1561 1561 1562 1563
1503 1504 1506 1509 1512 1515 1517 1519 1521 1522 1523 1525 1527 1528 1530 1532 1533 1534 1536 1537 1538 1538 1539 1540 1540 1541 1542 1542 1542 1543 1543 1544 1544 1545 1545 1546 1546 1546 1546 1547 1547 1548 1548 1549 1550 1552 1552 1553 1554 1554 1555 1555 1556 1557 1558 1559 1559 1560 1561 1562 1562 1562
1503 1504 1505 1508 1511 1514 1516 1518 1520 1521 1523 1525 1527 1528 1530 1531 1533 1534 1535 1536 1537 1538 1539 1540 1540 1541 1541 1541 1542 1542 1542 1543 1544 1544 1545 1545 1546 1546 1546 1547 1547 1548 1548 1549 1550 1551 1552 1553 1554 1554 1555 1556 1556 1557 1558 1559 1559 1560 1561 1562 1562 1563
1504 1504 1506 1508 1511 1514 1516 1518 1519 1521 1523 1525 1526 1528 1530 1531 1533 1534 1535 1536 1537 1538 1539 1540 1540 1541 1541 1541 1541 1542 1542 1543 1543 1544 1545 1545 1546 1546 1546 1547 1547 1548 1548 1550 1551 1551 1552 1553 1554 1555 1555 1556 1557 1558 1559 1559 1560 1560 1561 1562 1563 1564
1505 1506 1507 1509 1512 1514 1516 1519 1520 1522 1524 1525 1526 1528 1529 1531 1532 1534 1535 1536 1537 1538 1539 1540 1540 1541 1541 1541 1541 1541 1542 1542 1543 1544 1545 1545 1546 1546 1546 1547 1547 1548 1548 1550 1551 1552 1552 1553 1554 1555 1556 1556 1557 1558 1559 1559 1560 1561 1562 1562 1563 1564
1507 1507 1508 1510 1512 1515 1517 1519 1520 1522 1524 1525 1526 1528 1529 1531 1532 1534 1535 1536 1537 1538 1539 1540 1540 1540 1540 1541 1541 1541 1542 1542 1543 1544 1545 1545 1546 1546 1546 1547 1547 1548 1549 1549 1550 1552 1552 1553 1554 1555 1556 1557 1558 1558 1559 1560 1560 1561 1562 1562 1563 1564
1508 1508 1509 1511 1513 1515 1517 1519 1520 1522 1524 1525 1526 1527 1528 1530 1532 1534 1535 1536 1537 1538 1539 1540 1540 1540 1540 1541 1541 1541 1541 1542 1543 1544 1544 1545 1545 1546 1546 1546 1547 1548 1549 1550 1550 1551 1552 1553 1554 1555 1556 1557 1558 1559 1559 1559 1560 1561 1562 1562 1563 1564
1507 1508 1510 1511 1513 1515 1517 1518 1519 1521 1523 1524 1525 1527 1528 1530 1532 1534 1535 1536 1537 1538 1539 1539 1540 1540 1540 1540 1541 1541 1541 1542 1542 1543 1544 1544 1545 1546 1546 1546 1547 1548 1548 1550 1550 1551 1552 1553 1553 1554 1555 1556 1557 1558 1559 1559 1561 1562 1562 1563 1563 1564
1506 1508 1509 1511 1513 1515 1517 1518 1520 1522 1524 1525 1526 1528 1530 1531 1533 1534 1535 1537 1538 1539 1539 1540 1540 1541 1541 1541 1541 1541 1541 1541 1542 1543 1543 1544 1545 1545 1546 1546 1547 1547 1548 1549 1550 1550 1551 1552 1553 1554 1555 1555 1556 1558 1558 1559 1560 1561 1562 1563 1564 1565
1505 1507 1509 1512 1513 1515 1517 1518 1520 1522 1524 1526 1528 1529 1531 1532 1533 1534 1536 1537 1538 1539 1539 1540 1541 1541 1541 1541 1541 1541 1541 1541 1542 1543 1543 1544 1544 1545 1545 1546 1546 1547 1547 1548 1549 1550 1551 1552 1552 1554 1555 1555 1556 1557 1558 1558 1559 1560 1561 1563 1565 1566
1504 1506 1509 1512 1514 1516 1518 1519 1520 1523 1525 1527 1528 1530 1531 1532 1533 1534 1535 1537 1538 1539 1539 1540 1540 1541 1541 1541 1541 1541 1542 1542 1542 1542 1543 1543 1544 1544 1545 1545 1546 1546 1547 1548 1549 1549 1550 1551 1552 1553 1554 1555 1556 1556 1557 1558 1559 1561 1562 1563 1565 1566
1503 1506 1509 1512 1514 1516 1518 1519 1521 1523 1525 1527 1528 1530 1531 1532 1533 1534 1535 1537 1537 1538 1539 1539 1540 1540 1540 1541 1541 1542 1542 1542 1542 1542 1543 1543 1543 1544 1544 1545 1545 1546 1546 1547 1548 1549 1550 1550 1551 1552 1554 1554 1555 1556 1557 1557 1559 1560 1562 1563 1564 1566
1503 1506 1508 1511 1514 1516 1518 1520 1522 1524 1525 1527 1529 1530 1531 1532 1533 1534 1536 1537 1537 1538 1539 1539 1539 1539 1540 1541 1541 1542 1542 1542 1542 1542 1543 1543 1543 1544 1544 1544 1545 1545 1546 1547 1547 1548 1549 1550 1550 1551 1552 1553 1554 1555 1556 1557 1558 1559 1561 1563 1564 1567
1503 1506 1508 1511 1514 1516 1519 1521 1523 1524 1526 1528 1529 1531 1532 1533 1534 1535 1536 1537 1537 1538 1539 1539 1540 1539 1540 1540 1541 1542 1542 1542 1543 1543 1543 1543 1543 1543 1544 1544 1545 1545 1546 1546 1547 1547 1548 1549 1550 1550 1551 1552 1553 1555 1555 1556 1557 1559 1561 1562 1564 1566
1503 1506 1508 1510 1513 1516 1518 1520 1523 1524 1526 1528 1530 1532 1533 1534 1535 1536 1537 1537 1538 1538 1539 1539 1540 1540 1540 1540 1541 1541 1542 1542 1543 1543 1542 1542 1543 1543 1544 1544 1545 1545 1545 1546 1546 1547 1548 1548 1549 1550 1550 1552 1553 1554 1555 1555 1557 1558 1560 1562 1563 1565
1502 1505 1507 1510 1512 1515 1518 1520 1522 1524 1526 1528 1530 1532 1533 1534 1536 1536 1537 1538 1538 1539 1539 1539 1539 1540 1540 1540 1540 1541 1541 1542 1542 1542 1542 1542 1543 1543 1544 1544 1545 1545 1545 1546 1546 1546 1547 1548 1548 1549 1550 1551 1552 1553 1554 1555 1556 1557 1558 1560 1562 1563
1501 1503 1505 1508 1510 1513 1516 1519 1521 1524 1526 1528 1530 1532 1533 1535 1536 1537 1538 1538 1538 1538 1538 1539 1539 1539 1540 1540 1540 1541 1541 1542 1542 1543 1543 1543 1543 1543 1543 1544 1544 1545 1545 1545 1545 1546 1546 1547 1548 1548 1549 1551 1552 1553 1554 1555 1556 1557 1558 1559 1561 1562
1500 1501 1503 1506 1509 1512 1515 1518 1521 1524 1526 1528 1530 1532 1533 1534 1536 1537 1537 1537 1537 1538 1538 1538 1539 1539 1539 1539 1540 1541 1541 1542 1542 1543 1543 1543 1543 1543 1543 1544 1544 1545 1545 1545 1545 1546 1546 1547 1547 1548 1549 1550 1552 1553 1554 1555 1556 1557 1558 1559 1561 1562
1499 1501 1503 1505 1508 1511 1514 1518 1521 1523 1526 1528 1530 1531 1532 1533 1535 1536 1537 1537 1537 1538 1538 1538 1539 1539 1539 1539 1540 1540 1541 1542 1542 1542 1543 1543 1543 1543 1543 1544 1544 1545 1545 1545 1546 1546 1546 1546 1547 1548 1548 1550 1551 1553 1554 1555 1556 1557 1559 1560 1561 1563